Weather History for Watsonville, CA

Change the Weather History Date:

Sunday, March 2, 2014

  Actual Average Record
Temperature  
Mean Temperature 55 °F 53 °F  
Max Temperature 59 °F 62 °F 72 °F (2013)
Min Temperature 50 °F 44 °F 35 °F (2002)
Degree Days  
Heating Degree Days 10    
Month to date heating degree days 14  
Since 1 July heating degree days 1753  
Cooling Degree Days 0    
Month to date cooling degree days 0  
Year to date cooling degree days 0  
Growing Degree Days 5 (Base 50)    
Moisture  
Dew Point 52 °F    
Average Humidity 92    
Maximum Humidity 100    
Minimum Humidity 83    
Precipitation  
Precipitation 0.04 in - 1.43 in (1989)
Month to date precipitation 0.53  
Year to date precipitation 5.28  
Since 1 July precipitation 6.35  
Sea Level Pressure  
Sea Level Pressure 30.06 in    
Wind  
Wind Speed 6 mph (SSW)    
Max Wind Speed 16 mph    
Max Gust Speed 23 mph    
Visibility 9 miles    
Events Rain    
T = Trace of Precipitation, MM = Missing Value Source: NWS Daily Summary

Daily Weather History Graph

Daily Weather History Graph

Search for Another Location

Airport:

Trip Planner

Search our weather history database for the weather conditions in past years. The results will help you decide how hot, cold, wet, or windy it might be!

Date:

Astronomy

Mar. 02, 2014 Rise Set
Actual Time 6:36 AM PST 6:02 PM PST
Civil Twilight 6:10 AM PST 6:28 PM PST
Nautical Twilight 5:40 AM PST 6:58 PM PST
Astronomical Twilight 5:10 AM PST 7:28 PM PST
Moon 7:14 AM PST (3/2) 8:00 PM PST (3/2)
Length of Visible Light 12h 18m
Length of Day
11h 26m
Waxing Crescent, 3% of the Moon is Illuminated
Mar 2
Waxing Crescent
Mar 8
First Quarter
Mar 16
Full
Mar 23
Last Quarter
Mar 30
New

Hourly Weather History & Observations

Time (PST) Temp. Dew Point Humidity Pressure Visibility Wind Dir Wind Speed Gust Speed Precip Events Conditions
12:53 AM 51.1 °F 46.9 °F 86% 29.84 in 10.0 mi Calm Calm - N/A   Clear
1:53 AM 52.0 °F 48.0 °F 86% 29.85 in 10.0 mi NE 3.5 mph - N/A   Mostly Cloudy
2:08 AM 51.8 °F 48.2 °F 88% 29.85 in 10.0 mi NNW 3.5 mph - N/A   Mostly Cloudy
2:18 AM 51.8 °F 48.2 °F 88% 29.85 in 10.0 mi Calm Calm - N/A   Overcast
2:53 AM 52.0 °F 48.0 °F 86% 29.86 in 10.0 mi SW 3.5 mph - N/A   Overcast
3:53 AM 53.1 °F 48.9 °F 86% 29.86 in 10.0 mi NW 3.5 mph - N/A   Overcast
4:53 AM 54.0 °F 50.0 °F 86% 29.88 in 10.0 mi Calm Calm - N/A   Overcast
5:21 AM 55.4 °F 50.0 °F 82% 29.90 in 10.0 mi South 6.9 mph - N/A   Overcast
5:53 AM 55.9 °F 51.1 °F 84% 29.91 in 10.0 mi SE 9.2 mph - N/A   Overcast
6:53 AM 55.0 °F 51.1 °F 86% 29.93 in 7.0 mi South 9.2 mph - N/A   Overcast
7:16 AM 53.6 °F 51.8 °F 94% 29.94 in 2.5 mi South 9.2 mph - 0.02 in Rain Light Rain
7:21 AM 53.6 °F 51.8 °F 94% 29.95 in 3.0 mi SSE 6.9 mph - 0.02 in Rain Light Rain
7:35 AM 53.6 °F 51.8 °F 94% 29.96 in 10.0 mi South 6.9 mph - 0.02 in   Overcast
7:48 AM 53.6 °F 51.8 °F 94% 29.97 in 1.8 mi Calm Calm - 0.03 in Rain Light Rain
7:53 AM 54.0 °F 53.1 °F 97% 29.97 in 1.5 mi SSE 3.5 mph - 0.03 in Rain Light Rain
7:59 AM 53.6 °F 53.6 °F 100% 29.97 in 3.0 mi South 6.9 mph - 0.00 in Rain Light Rain
8:29 AM 55.4 °F 53.6 °F 94% 29.99 in 10.0 mi South 12.7 mph - 0.00 in   Overcast
8:53 AM 55.0 °F 53.1 °F 93% 30.01 in 10.0 mi South 9.2 mph - 0.00 in   Overcast
9:27 AM 55.4 °F 53.6 °F 94% 30.02 in 10.0 mi South 12.7 mph - N/A   Overcast
9:53 AM 55.9 °F 53.1 °F 90% 30.04 in 10.0 mi South 17.3 mph 20.7 mph N/A   Overcast
10:51 AM 55.4 °F 53.6 °F 94% 30.06 in 2.5 mi South 15.0 mph - 0.00 in Rain Light Rain
10:53 AM 55.0 °F 54.0 °F 96% 30.06 in 2.5 mi SSW 12.7 mph - 0.00 in Rain Light Rain
11:03 AM 55.4 °F 53.6 °F 94% 30.06 in 6.0 mi South 15.0 mph - 0.00 in Rain Light Rain
11:42 AM 55.4 °F 53.6 °F 94% 30.07 in 9.0 mi South 12.7 mph - 0.00 in   Overcast
11:53 AM 55.9 °F 54.0 °F 93% 30.07 in 9.0 mi South 11.5 mph - 0.00 in   Overcast
12:25 PM 55.4 °F 53.6 °F 94% 30.08 in 10.0 mi SSW 15.0 mph 23.0 mph N/A   Overcast
12:32 PM 55.4 °F 53.6 °F 94% 30.08 in 10.0 mi SSW 12.7 mph 23.0 mph N/A   Overcast
12:53 PM 59.0 °F 55.0 °F 87% 30.08 in 10.0 mi SSW 12.7 mph 21.9 mph N/A   Overcast
1:34 PM 57.2 °F 53.6 °F 88% 30.09 in 9.0 mi SW 10.4 mph - N/A   Overcast
1:43 PM 57.2 °F 53.6 °F 88% 30.09 in 10.0 mi SW 10.4 mph - N/A   Overcast
1:53 PM 57.0 °F 54.0 °F 89% 30.09 in 6.0 mi SSW 12.7 mph 19.6 mph N/A   Overcast
2:53 PM 57.0 °F 54.0 °F 89% 30.10 in 10.0 mi SW 8.1 mph - 0.01 in   Overcast
3:25 PM 57.2 °F 53.6 °F 88% 30.10 in 10.0 mi SW 6.9 mph - N/A   Overcast
3:45 PM 57.2 °F 53.6 °F 88% 30.11 in 10.0 mi SW 5.8 mph - N/A   Overcast
3:48 PM 57.2 °F 53.6 °F 88% 30.11 in 10.0 mi SW 3.5 mph - N/A   Overcast
3:53 PM 57.0 °F 53.1 °F 87% 30.11 in 10.0 mi South 8.1 mph - N/A   Overcast
4:05 PM 57.2 °F 53.6 °F 88% 30.11 in 10.0 mi SW 5.8 mph - N/A   Overcast
4:53 PM 57.0 °F 53.1 °F 87% 30.12 in 10.0 mi SSW 4.6 mph - N/A   Overcast
5:00 PM 57.2 °F 53.6 °F 88% 30.12 in 10.0 mi South 5.8 mph - N/A   Mostly Cloudy
5:18 PM 55.4 °F 53.6 °F 94% 30.13 in 10.0 mi South 6.9 mph - N/A   Mostly Cloudy
5:26 PM 55.4 °F 51.8 °F 88% 30.13 in 10.0 mi South 4.6 mph - N/A   Mostly Cloudy
5:53 PM 55.9 °F 53.1 °F 90% 30.14 in 10.0 mi SSW 8.1 mph - N/A   Overcast
6:53 PM 54.0 °F 52.0 °F 93% 30.14 in 10.0 mi SSW 3.5 mph - N/A   Scattered Clouds
7:10 PM 53.6 °F 51.8 °F 94% 30.14 in 10.0 mi Calm Calm - N/A   Mostly Cloudy
7:27 PM 53.6 °F 51.8 °F 94% 30.15 in 10.0 mi Calm Calm - N/A   Mostly Cloudy
7:53 PM 54.0 °F 53.1 °F 97% 30.16 in 10.0 mi Calm Calm - N/A   Overcast
8:12 PM 55.4 °F 53.6 °F 94% 30.16 in 10.0 mi Calm Calm - N/A   Overcast
8:23 PM 55.4 °F 51.8 °F 88% 30.16 in 10.0 mi Calm Calm - N/A   Overcast
8:53 PM 54.0 °F 53.1 °F 97% 30.17 in 10.0 mi Calm Calm - N/A   Overcast
9:01 PM 55.4 °F 53.6 °F 94% 30.17 in 10.0 mi Calm Calm - N/A   Overcast
9:13 PM 55.4 °F 53.6 °F 94% 30.16 in 10.0 mi Calm Calm - N/A   Overcast
9:25 PM 55.4 °F 51.8 °F 88% 30.16 in 9.0 mi Calm Calm - N/A   Overcast
9:51 PM 53.6 °F 51.8 °F 94% 30.16 in 7.0 mi Calm Calm - N/A   Scattered Clouds
9:53 PM 54.0 °F 51.1 °F 90% 30.16 in 7.0 mi Calm Calm - N/A   Scattered Clouds
10:34 PM 53.6 °F 51.8 °F 94% 30.18 in 10.0 mi Calm Calm - N/A   Mostly Cloudy
10:53 PM 52.0 °F 50.0 °F 93% 30.19 in 10.0 mi WNW 3.5 mph - N/A   Mostly Cloudy
11:10 PM 53.6 °F 51.8 °F 94% 30.20 in 10.0 mi WSW 3.5 mph - N/A   Overcast
11:29 PM 53.6 °F 51.8 °F 94% 30.20 in 8.0 mi Calm Calm - N/A   Overcast
11:48 PM 53.6 °F 51.8 °F 94% 30.20 in 9.0 mi Calm Calm - N/A   Overcast
11:53 PM 53.1 °F 51.1 °F 93% 30.19 in 10.0 mi Calm Calm - N/A   Overcast